Home   Weather   Downey   Past weeks

Flag for USA Past Weather in Downey, California, USA — Yesterday and Last 2 Weeks

Now
61 °F

Scattered clouds.


Feels Like: 61 °F
Forecast: 48 / 66 °F
Wind: 5 mph from North

Location: Long Beach Airport

Current Time: Jan 16, 2017 at 11:20:15 am

Latest Report: Jan 16, 2017 at 10:53 am


Visibility: 10 mi

Pressure: 30.09 "Hg

Humidity: 65%

Dew Point: 49 °F

Location of DowneyLocation

Past Weather in Downey — Graph

°F

Downey Temperature Yesterday

Maximum temperature yesterday: 62 °F (at 12:53 pm)
Minimum temperature yesterday: 50 °F (at 4:26 am)
Average temperature yesterday: 55 °F

High & Low Weather Summary for the Past Weeks

 TemperatureHumidityPressure
High75 °F (Jan 8, 12:53 pm)100% (Jan 10, 5:53 am)30.21 "Hg (Jan 10, 5:53 am)
Low45 °F (Jan 4, 4:53 am)29% (Jan 7, 2:53 pm)29.92 "Hg (Jan 12, 4:53 am)
Average56 °F79%30.06 "Hg
* Reported Jan 1 10:53 am — Jan 16 10:00 am, Downey, Weather by CustomWeather, © 2017

Note: Actual official high and low records may vary slightly from our data, if they occured in-between our weather recording intervals... More about our weather records

Advertising

Downey Weather History for the Previous 24 Hours

Scroll right to see more
 ConditionsComfort  
Time TempWeatherWind HumidityBarometerVisibility
10:00 am
Mon, Jan 16
61 °FScattered clouds.N/A65%30.11 "Hg10 mi
8:53 am56 °FPartly sunny.No wind81%30.10 "Hg8 mi
8:27 am56 °FOvercast.5 mph84%30.10 "Hg8 mi
7:53 am53 °FPartly sunny.5 mph89%30.09 "Hg8 mi
6:53 am53 °FOvercast.No wind86%30.06 "Hg9 mi
6:22 am53 °FOvercast.No wind89%30.06 "Hg9 mi
5:53 am54 °FMostly cloudy.No wind86%30.05 "Hg9 mi
4:53 am54 °FMostly cloudy.No wind86%30.04 "Hg9 mi
3:53 am54 °FMostly cloudy.No wind86%30.03 "Hg9 mi
2:53 am53 °FPassing clouds.No wind89%30.05 "Hg8 mi
2:29 am53 °FPassing clouds.No wind89%30.05 "Hg8 mi
1:53 am54 °FPassing clouds.No wind90%30.06 "Hg8 mi
1:29 am54 °FPassing clouds.No wind86%30.06 "Hg8 mi
12:53 am55 °FOvercast.No wind83%30.06 "Hg8 mi
11:53 pm
Sun, Jan 15
53 °FPassing clouds.No wind89%30.06 "Hg7 mi
10:53 pm54 °FPassing clouds.No wind86%30.07 "Hg7 mi
9:53 pm54 °FClear.No wind86%30.07 "Hg7 mi
8:53 pm55 °FPassing clouds.3 mph87%30.06 "Hg8 mi
7:53 pm57 °FClear.3 mph81%30.06 "Hg10 mi
6:53 pm58 °FOvercast.6 mph78%30.05 "Hg10 mi
5:53 pm58 °FPassing clouds.6 mph81%30.04 "Hg10 mi
4:53 pm59 °FScattered clouds.7 mph78%30.03 "Hg10 mi
3:53 pm61 °FPassing clouds.9 mph67%30.02 "Hg10 mi
2:53 pm60 °FPartly sunny.8 mph75%30.02 "Hg10 mi
1:53 pm61 °FPassing clouds.12 mph70%30.02 "Hg10 mi
12:53 pm62 °FScattered clouds.10 mph67%30.03 "Hg10 mi
12:00 pm60 °FPassing clouds.12 mph75%30.05 "Hg10 mi
11:28 am60 °FPartly sunny.9 mph75%30.07 "Hg10 mi
11:17 am61 °FMore clouds than sun.9 mph72%30.07 "Hg10 mi
Weather by CustomWeather, © 2017

See weather overviewHow to use our weather pages